Location: Dürabuch
(48.2640°N, 11.2185°E)
Time: 02:26:59
(UTC+00:00)

SJ 16-02 - Pass Details

Date: 23 May 2024
Orbit: 594 x 606 km, 75.0° (Epoch: 19 June)

Event Time Altitude Azimuth Distance (km) Brightness Sun altitude
Exits shadow 01:40:42 18° 187° (S) 1,476 2.8 -13.5°
Maximum altitude 01:43:48 68° 108° (ESE) 646 1.5 -13.2°
Drops below altitude 10° 01:48:06 10° 26° (NNE) 1,939 5.3 -12.7°
Sets 01:50:20 0° 24° (NNE) 2,846 6.5 -12.5°
